TimeCDT,TemperatureF,Dew PointF,Humidity,Sea Level PressureIn,VisibilityMPH,Wind Direction,Wind SpeedMPH,Gust SpeedMPH,PrecipitationIn,Events,Conditions,WindDirDegrees,DateUTC
12:15 AM,50.0,43.7,79,29.93,10.0,SSE,4.6,-,N/A,,Clear,160,2013-09-30 05:15:00
12:35 AM,49.3,43.7,81,29.92,10.0,SSE,4.6,-,N/A,,Clear,160,2013-09-30 05:35:00
12:55 AM,49.1,43.7,82,29.92,10.0,Calm,Calm,-,N/A,,Clear,0,2013-09-30 05:55:00
1:15 AM,48.7,44.2,84,29.91,10.0,SSE,6.9,-,N/A,,Clear,160,2013-09-30 06:15:00
1:35 AM,50.0,44.2,81,29.92,10.0,SSE,4.6,-,N/A,,Clear,160,2013-09-30 06:35:00
1:55 AM,48.0,43.7,85,29.91,10.0,SSE,5.8,-,N/A,,Clear,150,2013-09-30 06:55:00
2:15 AM,48.2,43.7,84,29.91,10.0,South,4.6,-,N/A,,Clear,170,2013-09-30 07:15:00
2:35 AM,47.5,43.3,86,29.89,10.0,SSE,5.8,-,N/A,,Clear,160,2013-09-30 07:35:00
2:55 AM,47.5,43.5,86,29.90,10.0,South,3.5,-,N/A,,Clear,190,2013-09-30 07:55:00
3:15 AM,46.8,43.0,87,29.90,10.0,South,5.8,-,N/A,,Clear,180,2013-09-30 08:15:00
3:35 AM,48.7,44.8,86,29.89,10.0,SSE,6.9,-,N/A,,Clear,160,2013-09-30 08:35:00
3:55 AM,49.1,44.6,84,29.88,10.0,South,8.1,-,N/A,,Clear,170,2013-09-30 08:55:00
4:15 AM,49.3,45.1,86,29.87,10.0,South,8.1,-,N/A,,Clear,170,2013-09-30 09:15:00
4:35 AM,50.4,45.7,84,29.86,10.0,South,9.2,-,N/A,,Clear,180,2013-09-30 09:35:00
4:55 AM,49.6,45.5,86,29.86,10.0,South,6.9,-,N/A,,Clear,170,2013-09-30 09:55:00
5:15 AM,49.1,45.5,87,29.87,10.0,SSE,4.6,-,N/A,,Clear,160,2013-09-30 10:15:00
5:35 AM,49.1,45.5,87,29.87,10.0,South,6.9,-,N/A,,Clear,170,2013-09-30 10:35:00
5:55 AM,49.6,46.0,87,29.87,10.0,South,5.8,-,N/A,,Clear,170,2013-09-30 10:55:00
6:15 AM,49.5,45.7,87,29.88,10.0,South,6.9,-,N/A,,Clear,180,2013-09-30 11:15:00
6:35 AM,49.1,45.7,88,29.88,10.0,SSE,5.8,-,N/A,,Clear,160,2013-09-30 11:35:00
6:55 AM,49.1,45.5,87,29.87,10.0,SSE,6.9,-,N/A,,Clear,160,2013-09-30 11:55:00
7:15 AM,49.5,46.2,89,29.87,10.0,SSE,5.8,-,N/A,,Clear,160,2013-09-30 12:15:00
7:35 AM,49.6,46.2,88,29.86,10.0,SSE,6.9,-,N/A,,Clear,160,2013-09-30 12:35:00
7:55 AM,51.4,47.5,86,29.86,10.0,South,6.9,-,N/A,,Clear,170,2013-09-30 12:55:00
8:15 AM,53.1,48.4,84,29.86,10.0,South,6.9,-,N/A,,Clear,170,2013-09-30 13:15:00
8:35 AM,55.4,49.5,80,29.86,10.0,South,9.2,-,N/A,,Clear,180,2013-09-30 13:35:00
8:55 AM,56.3,49.5,78,29.86,10.0,South,9.2,-,N/A,,Clear,190,2013-09-30 13:55:00
9:15 AM,58.8,49.8,72,29.85,10.0,South,11.5,-,N/A,,Clear,190,2013-09-30 14:15:00
9:35 AM,60.8,50.2,68,29.85,10.0,South,11.5,-,N/A,,Clear,190,2013-09-30 14:35:00
9:55 AM,64.2,50.0,60,29.86,10.0,South,11.5,-,N/A,,Clear,190,2013-09-30 14:55:00
10:15 AM,65.3,48.7,55,29.86,10.0,SSW,12.7,17.3,N/A,,Clear,200,2013-09-30 15:15:00
10:35 AM,66.6,48.4,52,29.84,10.0,South,16.1,20.7,N/A,,Clear,190,2013-09-30 15:35:00
10:55 AM,67.8,48.2,49,29.84,10.0,South,16.1,20.7,N/A,,Clear,190,2013-09-30 15:55:00
11:15 AM,69.8,48.0,46,29.84,10.0,SSW,13.8,21.9,N/A,,Clear,200,2013-09-30 16:15:00
11:35 AM,70.5,47.5,44,29.84,10.0,South,16.1,25.3,N/A,,Clear,190,2013-09-30 16:35:00
11:55 AM,72.1,46.9,41,29.83,10.0,South,13.8,21.9,N/A,,Clear,190,2013-09-30 16:55:00
12:15 PM,72.7,46.9,40,29.83,10.0,SSW,12.7,23.0,N/A,,Clear,200,2013-09-30 17:15:00
12:35 PM,74.1,46.8,38,29.82,10.0,South,12.7,20.7,N/A,,Clear,180,2013-09-30 17:35:00
12:55 PM,74.3,46.4,37,29.82,10.0,South,12.7,21.9,N/A,,Clear,190,2013-09-30 17:55:00
1:15 PM,75.7,46.0,35,29.81,10.0,South,15.0,20.7,N/A,,Clear,180,2013-09-30 18:15:00
1:35 PM,75.9,45.1,33,29.79,10.0,South,17.3,21.9,N/A,,Clear,170,2013-09-30 18:35:00
1:55 PM,76.8,44.2,31,29.79,10.0,South,16.1,21.9,N/A,,Clear,180,2013-09-30 18:55:00
2:15 PM,77.9,44.4,30,29.78,10.0,South,15.0,19.6,N/A,,Clear,180,2013-09-30 19:15:00
2:35 PM,78.1,44.6,30,29.77,10.0,South,16.1,21.9,N/A,,Clear,180,2013-09-30 19:35:00
2:55 PM,78.6,43.5,29,29.77,10.0,South,13.8,21.9,N/A,,Clear,170,2013-09-30 19:55:00
3:15 PM,79.3,42.4,27,29.76,10.0,South,15.0,26.5,N/A,,Clear,180,2013-09-30 20:15:00
3:35 PM,79.5,41.2,25,29.75,10.0,South,15.0,24.2,N/A,,Clear,190,2013-09-30 20:35:00
3:55 PM,79.7,41.5,26,29.74,10.0,South,18.4,25.3,N/A,,Clear,180,2013-09-30 20:55:00
4:15 PM,78.8,41.7,27,29.74,10.0,South,20.7,27.6,N/A,,Clear,170,2013-09-30 21:15:00
4:35 PM,78.4,41.9,27,29.73,10.0,South,17.3,24.2,N/A,,Clear,180,2013-09-30 21:35:00
4:55 PM,78.4,40.6,26,29.73,10.0,South,19.6,25.3,N/A,,Clear,180,2013-09-30 21:55:00
5:15 PM,77.5,41.4,27,29.73,10.0,South,17.3,24.2,N/A,,Clear,180,2013-09-30 22:15:00
5:35 PM,77.2,41.9,28,29.73,10.0,South,13.8,19.6,N/A,,Clear,180,2013-09-30 22:35:00
5:55 PM,76.3,41.2,28,29.73,10.0,South,13.8,21.9,N/A,,Clear,180,2013-09-30 22:55:00
6:15 PM,75.4,40.8,29,29.73,10.0,South,11.5,20.7,N/A,,Clear,180,2013-09-30 23:15:00
6:35 PM,73.4,42.3,33,29.74,10.0,South,9.2,16.1,N/A,,Clear,180,2013-09-30 23:35:00
6:55 PM,71.8,43.2,36,29.73,10.0,South,10.4,-,N/A,,Clear,180,2013-09-30 23:55:00
7:15 PM,69.8,43.7,39,29.74,10.0,South,9.2,-,N/A,,Clear,180,2013-10-01 00:15:00
7:35 PM,68.4,44.4,42,29.75,10.0,South,10.4,-,N/A,,Clear,190,2013-10-01 00:35:00
7:55 PM,66.9,45.3,46,29.75,10.0,South,6.9,-,N/A,,Clear,190,2013-10-01 00:55:00
8:15 PM,65.3,46.2,50,29.75,10.0,South,6.9,-,N/A,,Clear,180,2013-10-01 01:15:00
8:35 PM,64.0,46.6,53,29.76,10.0,South,6.9,-,N/A,,Clear,170,2013-10-01 01:35:00
8:55 PM,63.0,47.3,57,29.77,10.0,South,6.9,-,N/A,,Clear,170,2013-10-01 01:55:00
9:15 PM,61.5,47.5,60,29.76,10.0,South,5.8,-,N/A,,Clear,170,2013-10-01 02:15:00
9:35 PM,60.1,47.8,64,29.76,10.0,South,6.9,-,N/A,,Clear,180,2013-10-01 02:35:00
9:55 PM,59.9,48.6,66,29.77,10.0,South,4.6,-,N/A,,Clear,180,2013-10-01 02:55:00
10:15 PM,59.0,49.1,70,29.77,10.0,South,5.8,-,N/A,,Clear,190,2013-10-01 03:15:00
10:35 PM,59.9,49.5,68,29.78,10.0,South,5.8,-,N/A,,Clear,190,2013-10-01 03:35:00
10:55 PM,60.4,50.0,68,29.79,10.0,South,6.9,-,N/A,,Clear,190,2013-10-01 03:55:00
11:15 PM,60.6,50.4,69,29.79,10.0,South,6.9,-,N/A,,Clear,180,2013-10-01 04:15:00
11:35 PM,59.4,50.4,72,29.79,10.0,South,6.9,-,N/A,,Clear,170,2013-10-01 04:35:00
11:55 PM,59.2,51.1,74,29.79,10.0,South,6.9,-,N/A,,Clear,170,2013-10-01 04:55:00